Location: Newark
(43.6583°N, 1.6617°E)
Time: 02:11:32
(UTC+00:00)

Transit 4A - Pass Details

Date: 26 August 2019
Orbit: 865 x 980 km, 66.8° (Epoch: 16 September)

Event Time Altitude Azimuth Distance (km) Brightness Sun altitude
Rises 03:20:12 0° 318° (NW) 3,615 10.9 -18.6°
Reaches altitude 10° 03:23:11 10° 306° (NW) 2,646 10.1 -18.2°
Enters shadow 03:27:39 25° 260° (W) 1,756 8.8 -17.5°
Maximum altitude 03:28:04 25° 253° (WSW) 1,745 - -17.5°
Drops below altitude 10° 03:32:50 10° 200° (SSW) 2,568 - -16.8°
Sets 03:35:41 0° 188° (S) 3,485 - -16.3°
